Location: Eldred Sherwood Park Lake Dam
(42.9416°N, 93.5655°W)
Time: 13:05:29
(UTC+00:00)

Explorer 11/Cluster Stage 4 - Pass Details

Date: 14 December 2025
Orbit: 463 x 1180 km, 28.8° (Epoch: 13 January)

Event Time Altitude Azimuth Distance (km) Brightness Sun altitude
Rises 00:45:12 0° 225° (SW) 4,013 11.1 -22.0°
Reaches altitude 10° 00:49:03 10° 209° (SSW) 2,989 10.0 -22.7°
Maximum altitude 00:53:53 19° 168° (SSE) 2,282 8.9 -23.6°
Enters shadow 00:56:06 16° 145° (SE) 2,366 8.8 -24.0°
